Wind_Speed
10 6 11 16 15 6 5 10 16 14 17 15 14 15 15 24 26 27 29 29 29 30 28 30 33 34 33 32 31 31 34 34 36 38 39 39 38 36 35 32 31 30 30 28
6 15 22 9 9 14 13 14 17 14 10 11 11 18 13 21 26 28 27 31 33 34 35 33 28 30 36 35 37 35 37 38 37 38 41 42 41 39 36 34 34 33 32 30
15 14 14 14 14 13 13 16 15 13 10 14 15 21 17 24 30 32 35 35 36 36 33 34 35 34 32 38 42 43 42 43 40 38 41 41 39 37 38 38 38 39 36 33
13 23 17 11 18 14 17 15 12 10 5 7 3 9 14 12 15 20 36 39 43 38 37 39 38 39 42 43 45 46 45 45 46 43 43 45 46 47 47 44 42 41 39 37
12 11 13 16 20 11 19 6 14 11 11 7 19 9 15 5 14 16 14 24 39 40 39 44 43 43 38 45 49 48 46 47 50 49 48 46 48 46 45 44 42 42 39 39
16 14 8 16 13 13 4 2 4 3 4 9 19 13 15 15 20 18 19 29 29 33 35 39 38 35 38 41 45 49 47 47 49 51 51 50 49 47 47 47 46 45 43 42
19 18 11 12 8 9 15 5 3 4 4 8 21 11 21 15 13 12 10 25 28 30 35 35 31 34 36 39 41 45 48 47 47 52 54 54 52 50 49 49 48 47 47 46
12 9 21 14 13 8 8 12 7 5 7 6 7 7 12 17 27 39 34 30 29 30 23 23 27 28 31 33 35 40 45 46 46 48 54 55 54 53 52 51 50 49 49 48
11 15 5 13 15 11 8 10 13 14 11 5 3 6 10 12 9 9 13 16 21 28 30 28 26 29 30 29 31 37 40 44 46 48 50 54 55 55 55 53 52 51 49 49
3 4 10 10 17 17 18 8 4 5 8 9 8 7 9 6 7 7 9 22 29 27 21 21 23 25 23 23 24 28 36 46 46 47 49 53 55 57 56 54 56 54 53 51
3 2 1 3 11 15 11 15 13 4 3 2 3 5 5 10 8 5 6 17 17 13 9 10 16 17 19 17 20 24 28 31 42 44 46 49 53 55 55 55 57 57 55 53
15 1 6 11 7 5 13 15 19 10 18 7 6 13 8 17 23 17 15 10 10 10 8 13 9 11 9 9 13 17 20 30 34 36 44 45 47 50 52 55 57 56 54 53
12 5 2 1 4 6 6 11 11 13 15 18 13 12 3 7 11 21 20 13 7 9 17 13 17 25 27 26 27 19 25 23 25 34 37 40 41 46 51 53 54 53 52 51
20 4 10 12 3 6 8 15 12 12 10 17 12 26 34 23 22 24 27 28 28 25 22 21 22 22 24 26 33 30 27 22 26 25 32 37 40 43 48 49 50 51 51 50
6 6 11 14 11 10 14 7 10 11 15 14 22 20 31 17 9 21 34 42 41 42 34 30 31 33 39 41 40 35 34 32 32 29 28 33 34 36 41 45 46 47 48 50
3 1 2 4 4 9 13 14 14 12 13 9 16 20 31 31 28 25 29 35 36 36 37 41 46 40 39 40 40 37 36 38 32 30 30 30 35 36 37 39 42 45 47 48
9 4 4 3 3 4 8 18 16 16 18 16 18 26 29 24 8 19 29 25 25 31 33 37 43 42 39 42 43 43 40 36 36 35 32 30 32 36 38 38 40 42 45 47
6 5 3 3 3 3 9 3 7 12 15 14 20 22 24 23 29 30 9 23 28 31 31 30 31 33 38 42 43 41 39 40 40 39 37 34 35 36 37 39 40 42 43 46
5 4 1 3 4 8 11 8 8 8 17 6 6 13 17 31 29 4 21 36 30 33 37 39 41 42 41 40 41 42 43 42 43 43 41 39 38 38 37 39 41 41 42 43
2 4 4 2 4 8 4 5 19 4 9 10 15 12 17 25 8 6 43 45 46 46 46 49 48 45 43 41 35 35 42 42 46 42 39 37 35 37 36 37 38 40 41 42
3 1 6 4 5 6 3 7 15 4 5 17 16 17 20 9 11 29 35 42 41 45 47 49 47 48 48 46 39 37 37 42 43 41 38 39 37 36 37 36 37 37 38 40
7 7 4 3 3 7 14 4 2 5 11 18 19 19 23 21 26 28 26 32 44 50 50 48 50 50 48 45 41 36 38 36 33 38 40 37 35 35 39 39 38 38 39 39
4 6 4 8 5 9 17 20 12 11 11 17 23 28 29 31 31 34 35 32 34 47 52 47 48 51 48 45 41 40 36 34 37 39 37 34 33 35 36 38 39 40 41 41
3 5 2 4 4 7 15 11 11 19 17 22 22 27 33 35 36 41 38 36 37 43 47 46 46 49 48 43 41 38 37 35 33 32 32 32 32 35 37 37 38 40 42 44
1 4 2 4 4 11 12 16 24 26 20 24 29 28 27 31 37 34 38 37 41 41 41 42 43 44 44 40 38 37 35 33 33 29 28 27 30 32 34 37 39 41 43 44
4 2 3 2 6 2 9 21 26 20 24 26 29 36 30 25 30 34 38 37 34 35 39 39 38 36 36 35 34 33 32 29 28 27 25 25 25 29 32 35 40 41 43 43
Wind_Direction
202 220 211 214 213 230 266 255 254 244 235 246 249 263 260 267 258 250 254 258 256 257 256 248 247 238 229 239 240 227 222 229 227 224 223 226 229 229 232 232 234 235 235 232
192 214 230 226 200 224 233 251 259 269 296 303 285 267 260 257 261 251 249 252 254 254 252 252 241 234 229 231 241 235 227 230 233 227 229 231 233 235 238 236 235 237 237 235
217 234 220 237 242 234 228 227 247 265 307 290 286 267 265 257 260 257 255 252 253 253 252 249 242 238 238 234 232 240 233 230 234 234 227 230 232 235 237 236 236 237 239 237
231 246 236 211 237 231 249 235 247 261 257 263 292 283 276 282 258 238 241 243 246 247 247 247 246 239 235 236 236 240 239 231 234 234 230 230 231 230 235 237 238 238 238 239
218 214 207 230 235 231 252 226 245 250 251 263 263 267 269 319 276 268 269 273 241 243 243 246 245 242 239 238 235 237 241 237 233 234 233 231 231 237 238 237 238 240 240 240
234 247 226 222 231 230 272 73 331 289 228 244 244 221 267 253 258 272 268 260 255 239 243 251 249 246 244 241 237 237 239 241 235 232 234 234 235 235 234 234 237 240 241 241
227 232 240 242 240 224 217 183 232 234 217 247 246 219 241 271 254 259 274 286 294 254 245 248 250 245 244 239 241 240 239 239 239 234 234 237 239 239 239 238 238 239 240 240
214 224 215 217 223 210 209 206 230 263 240 263 204 219 242 242 244 250 263 270 273 273 267 261 254 253 251 246 239 245 241 241 241 238 237 240 242 242 241 241 240 241 244 246
191 233 177 193 209 213 221 215 229 257 272 283 242 269 285 272 274 235 250 273 267 266 268 270 263 259 258 247 248 241 243 245 244 242 240 238 241 242 242 243 242 242 245 247
240 241 202 225 204 214 221 159 183 205 236 234 219 236 250 260 258 262 242 247 256 265 270 274 276 280 278 269 264 254 243 244 248 246 241 239 241 243 245 244 242 242 243 243
228 262 150 50 201 210 217 237 236 230 257 245 299 236 224 243 255 44 6 1 325 261 259 286 299 285 277 273 273 266 260 251 245 247 244 238 239 242 244 245 245 245 243 243
205 8 229 236 257 246 223 229 229 226 250 234 260 272 260 289 295 296 306 328 318 294 305 330 317 345 357 356 357 341 283 264 255 247 247 244 240 241 243 245 247 246 245 242
174 224 165 267 271 222 203 245 252 248 253 252 259 267 205 273 278 289 304 268 323 314 302 304 311 313 317 315 317 330 332 311 274 256 250 250 248 245 245 246 247 246 244 244
166 200 205 219 155 160 208 224 227 235 243 252 247 262 273 278 283 294 304 324 331 330 314 314 316 315 311 311 311 313 316 315 317 283 256 250 250 248 247 246 245 245 246 243
145 207 233 246 259 278 276 247 220 231 248 256 266 267 273 276 311 313 311 309 306 303 299 299 299 300 301 297 298 301 306 306 307 298 275 259 257 255 250 247 245 245 245 245
116 206 138 318 295 277 279 272 262 252 233 245 261 270 268 279 272 281 279 275 276 285 295 297 297 296 298 300 301 300 297 301 304 296 283 275 263 258 253 250 246 244 242 242
161 146 140 268 231 227 271 249 249 255 252 243 251 255 275 284 275 262 256 274 298 300 297 296 297 300 299 296 296 293 293 297 296 293 291 279 275 266 260 255 248 244 242 242
157 154 162 204 56 249 237 304 237 249 255 241 244 256 267 284 282 273 37 15 354 342 342 336 332 323 312 303 299 298 292 289 289 288 289 294 287 273 265 257 251 246 243 242
130 146 147 159 200 278 294 271 255 241 269 346 307 9 358 344 328 238 6 350 344 335 335 335 330 317 308 307 308 302 296 291 286 287 291 294 289 277 266 260 255 249 244 242
251 180 139 115 179 232 65 5 331 337 275 13 16 3 359 352 355 323 328 333 327 325 325 325 325 323 322 312 305 296 294 291 285 290 295 296 288 278 272 265 260 252 245 243
103 317 195 211 252 292 353 312 297 153 288 350 1 348 342 338 306 304 315 315 317 320 322 325 323 317 321 323 316 293 292 289 296 297 296 292 287 274 273 269 260 256 247 241
163 158 178 176 236 287 356 1 251 8 3 348 342 335 326 319 311 310 314 312 318 319 320 322 320 318 319 322 323 308 292 292 290 290 288 285 284 278 270 265 261 251 244 239
182 185 186 175 204 73 63 103 77 33 357 345 334 330 329 324 321 318 318 319 316 316 317 320 316 315 316 318 321 317 313 303 289 282 279 280 277 275 271 263 256 248 241 235
167 28 172 38 23 67 117 91 27 357 349 330 328 325 324 321 321 318 320 320 319 318 317 317 314 314 314 316 317 319 318 315 305 289 282 280 277 274 267 257 252 246 241 233
167 27 116 279 56 36 115 27 349 342 333 329 322 323 321 318 317 318 315 316 317 318 318 314 312 311 312 315 315 316 320 319 311 302 288 277 277 275 269 257 249 245 242 239
21 130 164 204 77 314 288 320 335 338 336 330 325 321 322 322 315 314 314 319 318 317 318 314 311 309 312 316 316 318 320 321 318 309 297 287 282 278 270 260 250 241 238 237
Height
1522 1524 1521 1520 1526 1527 1533 1534 1530 1522 1520 1522 1516 1512 1509 1510 1507 1505 1507 1506 1506 1507 1508 1509 1508 1509 1510 1512 1515 1518 1521 1521 1524 1527 1529 1532 1533 1537 1538 1540 1542 1544 1547 1550
1523 1519 1510 1519 1523 1525 1531 1532 1529 1524 1520 1521 1517 1507 1505 1503 1499 1498 1497 1497 1497 1498 1501 1502 1503 1501 1502 1503 1506 1511 1513 1514 1515 1519 1520 1524 1527 1530 1533 1536 1537 1538 1540 1543
1513 1505 1516 1518 1520 1522 1523 1528 1531 1527 1522 1519 1516 1505 1502 1492 1493 1491 1488 1487 1488 1489 1492 1495 1495 1496 1496 1495 1496 1500 1504 1506 1508 1511 1515 1518 1522 1525 1526 1528 1530 1531 1533 1536
1512 1506 1511 1513 1515 1518 1520 1517 1520 1519 1525 1529 1518 1511 1497 1488 1479 1477 1474 1476 1477 1480 1483 1486 1486 1485 1487 1486 1487 1488 1494 1498 1500 1503 1505 1506 1508 1510 1512 1517 1521 1524 1526 1528
1500 1501 1507 1511 1508 1511 1510 1512 1515 1514 1518 1525 1517 1523 1480 1480 1476 1467 1470 1467 1469 1471 1473 1474 1474 1477 1478 1480 1478 1480 1483 1488 1492 1494 1495 1497 1499 1502 1507 1510 1512 1516 1519 1521
1497 1497 1498 1500 1503 1507 1509 1512 1514 1516 1521 1518 1508 1512 1486 1483 1469 1464 1464 1463 1463 1463 1463 1464 1465 1469 1469 1473 1472 1472 1474 1477 1482 1486 1488 1488 1490 1494 1498 1501 1503 1506 1509 1511
1492 1495 1496 1497 1501 1500 1505 1513 1520 1519 1517 1508 1488 1506 1485 1466 1461 1459 1457 1459 1459 1456 1455 1457 1457 1458 1458 1462 1464 1464 1465 1468 1472 1476 1478 1479 1481 1485 1487 1491 1493 1496 1498 1500
1496 1499 1489 1488 1495 1496 1500 1507 1511 1511 1505 1501 1485 1491 1468 1457 1453 1452 1453 1452 1453 1453 1453 1453 1453 1454 1454 1454 1457 1457 1458 1460 1464 1466 1469 1471 1473 1476 1478 1481 1483 1486 1488 1490
1488 1487 1478 1484 1488 1495 1496 1506 1502 1510 1507 1511 1491 1480 1460 1451 1447 1448 1448 1449 1448 1447 1447 1448 1449 1449 1449 1447 1448 1451 1451 1452 1453 1456 1459 1461 1464 1465 1466 1470 1473 1475 1479 1481
1472 1481 1474 1476 1484 1488 1490 1497 1506 1507 1504 1502 1489 1483 1470 1449 1445 1445 1445 1443 1440 1442 1444 1445 1443 1443 1443 1442 1443 1444 1445 1444 1443 1446 1448 1449 1451 1455 1458 1461 1463 1464 1467 1471
1474 1478 1478 1475 1478 1482 1491 1493 1494 1497 1500 1491 1489 1474 1447 1446 1442 1442 1442 1442 1439 1440 1441 1441 1441 1440 1439 1438 1438 1436 1435 1437 1436 1436 1439 1440 1441 1444 1447 1449 1451 1453 1457 1460
1472 1478 1485 1480 1475 1476 1480 1482 1486 1496 1487 1483 1481 1471 1448 1444 1439 1441 1441 1441 1441 1441 1440 1439 1437 1438 1436 1435 1433 1431 1430 1429 1428 1429 1432 1432 1433 1436 1437 1438 1442 1445 1446 1450
1469 1479 1489 1487 1482 1474 1479 1479 1482 1482 1481 1482 1485 1464 1441 1443 1442 1442 1441 1439 1439 1439 1438 1438 1437 1434 1432 1430 1429 1427 1426 1424 1422 1423 1424 1424 1424 1426 1426 1428 1431 1435 1438 1440
1461 1466 1469 1469 1464 1467 1474 1473 1474 1478 1481 1471 1474 1465 1436 1447 1448 1445 1440 1439 1439 1438 1436 1435 1434 1431 1429 1427 1424 1423 1420 1418 1416 1414 1412 1413 1414 1416 1417 1419 1423 1426 1428 1430
1460 1475 1465 1461 1463 1465 1463 1466 1473 1472 1468 1474 1459 1461 1432 1442 1447 1446 1446 1439 1433 1429 1431 1432 1429 1426 1422 1419 1417 1415 1414 1411 1409 1407 1405 1404 1404 1406 1408 1411 1413 1415 1418 1421
1458 1471 1468 1478 1469 1469 1468 1464 1463 1463 1465 1472 1465 1462 1430 1439 1444 1447 1442 1436 1428 1428 1426 1422 1419 1418 1415 1414 1411 1409 1407 1406 1403 1400 1397 1396 1396 1396 1397 1399 1402 1405 1407 1409
1458 1469 1475 1478 1468 1468 1474 1456 1457 1454 1453 1454 1454 1440 1425 1428 1441 1437 1427 1430 1428 1424 1422 1421 1419 1415 1411 1407 1403 1401 1400 1398 1395 1392 1390 1389 1389 1389 1388 1390 1391 1393 1396 1400
1458 1469 1471 1478 1478 1491 1446 1441 1446 1448 1443 1443 1439 1433 1423 1426 1423 1427 1432 1431 1429 1426 1422 1418 1413 1407 1402 1399 1396 1394 1391 1388 1386 1382 1382 1384 1382 1380 1380 1381 1381 1384 1386 1388
1453 1461 1478 1487 1491 1460 1444 1445 1443 1443 1437 1440 1437 1440 1434 1429 1418 1422 1424 1427 1429 1426 1421 1415 1407 1400 1395 1391 1389 1384 1380 1377 1376 1373 1375 1375 1374 1371 1370 1369 1371 1373 1375 1378
1454 1455 1471 1486 1496 1489 1438 1434 1434 1437 1439 1447 1447 1445 1442 1436 1432 1429 1422 1421 1417 1417 1413 1408 1401 1395 1389 1384 1379 1372 1369 1368 1363 1367 1366 1364 1362 1361 1360 1360 1360 1362 1365 1367
1471 1469 1471 1480 1485 1459 1435 1436 1434 1455 1443 1451 1452 1450 1448 1449 1448 1439 1433 1421 1421 1417 1408 1402 1396 1389 1383 1378 1371 1361 1357 1354 1358 1357 1355 1353 1351 1350 1351 1350 1350 1352 1355 1357
1456 1466 1477 1477 1481 1466 1440 1434 1437 1458 1454 1453 1451 1451 1448 1447 1440 1434 1430 1423 1414 1405 1400 1397 1387 1380 1376 1371 1364 1354 1349 1348 1345 1344 1342 1341 1340 1339 1340 1340 1340 1342 1345 1346
1449 1438 1448 1448 1450 1447 1447 1450 1457 1456 1455 1452 1449 1444 1442 1437 1432 1426 1420 1417 1410 1402 1393 1390 1381 1372 1369 1364 1358 1346 1341 1336 1333 1331 1329 1329 1330 1328 1328 1330 1330 1333 1335 1337
1430 1433 1437 1437 1441 1447 1449 1452 1453 1454 1453 1450 1447 1443 1438 1431 1427 1420 1414 1409 1404 1398 1389 1382 1375 1366 1359 1355 1350 1341 1333 1329 1325 1321 1320 1319 1319 1319 1319 1319 1320 1323 1326 1328
1437 1434 1441 1440 1436 1441 1447 1449 1450 1449 1448 1445 1441 1439 1435 1430 1421 1418 1411 1405 1399 1393 1386 1379 1370 1362 1353 1348 1341 1334 1327 1322 1317 1313 1310 1309 1309 1310 1311 1311 1311 1312 1315 1319
1438 1440 1441 1441 1451 1453 1449 1448 1448 1445 1443 1442 1438 1429 1429 1427 1421 1413 1407 1402 1395 1387 1380 1373 1365 1357 1349 1342 1335 1329 1323 1317 1312 1307 1304 1302 1302 1302 1302 1304 1305 1304 1307 1312